This is the latest recevied weather packets stored in our database for station/object KC7UNY-13. If no packets are shown the sender has not sent any weather packets the latest 10 day(s).
| Time | Temp. | Humidity | Pressure | Rain* | Wind** | Luminosity | Snow |
|---|---|---|---|---|---|---|---|
| 1777238522 | 23.89° C | 30% | 1010.8 hPa | 0 mm | - | 680 W/m² | - |
| 1777238218 | 24.44° C | 30% | 1010.8 hPa | 0 mm | - | 690 W/m² | - |
| 1777237916 | 24.44° C | 29% | 1010.7 hPa | 0 mm | - | 698 W/m² | - |
| 1777237612 | 24.44° C | 30% | 1010.7 hPa | 0 mm | - | 705 W/m² | - |
| 1777237309 | 24.44° C | 29% | 1010.8 hPa | 0 mm | - | 717 W/m² | - |
| 1777237006 | 24.44° C | 29% | 1010.9 hPa | 0 mm | - | 725 W/m² | - |
| 1777236703 | 24.44° C | 28% | 1010.8 hPa | 0 mm | - | 731 W/m² | - |
| 1777236397 | 24.44° C | 29% | 1010.8 hPa | 0 mm | - | 740 W/m² | - |
| 1777236094 | 24.44° C | 28% | 1010.9 hPa | 0 mm | - | 750 W/m² | - |
| 1777235790 | 24.44° C | 29% | 1010.8 hPa | 0 mm | - | 756 W/m² | - |
| 1777235487 | 24.44° C | 29% | 1011 hPa | 0 mm | - | 759 W/m² | - |
| 1777235183 | 24.44° C | 29% | 1010.8 hPa | 0 mm | - | 764 W/m² | - |
| 1777234880 | 24.44° C | 29% | 1010.9 hPa | 0 mm | - | 771 W/m² | - |
| 1777234576 | 25° C | 28% | 1011 hPa | 0 mm | - | 771 W/m² | - |
| 1777234275 | 23.89° C | 29% | 1010.9 hPa | 0 mm | - | 780 W/m² | - |
| 1777233973 | 23.89° C | 30% | 1011.1 hPa | 0 mm | - | 782 W/m² | - |
| 1777233669 | 24.44° C | 29% | 1011.1 hPa | 0 mm | - | 795 W/m² | - |
| 1777233369 | 23.89° C | 30% | 1011.1 hPa | 0 mm | - | 791 W/m² | - |
| 1777233063 | 23.89° C | 30% | 1011.2 hPa | 0 mm | - | 770 W/m² | - |
| 1777232761 | 23.89° C | 30% | 1011.2 hPa | 0 mm | - | 855 W/m² | - |
| 1777232459 | 23.33° C | 31% | 1011.2 hPa | 0 mm | - | 837 W/m² | - |
| 1777232156 | 23.33° C | 30% | 1011.3 hPa | 0 mm | - | 801 W/m² | - |
| 1777231853 | 22.78° C | 31% | 1011.4 hPa | 0 mm | - | 800 W/m² | - |
| 1777231549 | 23.33° C | 30% | 1011.3 hPa | 0 mm | - | 800 W/m² | - |
| 1777231246 | 23.33° C | 30% | 1011.4 hPa | 0 mm | - | 801 W/m² | - |
* Rain latest hour (hover to see other rain measurements)
** Current wind speed in m/s (hover to see current wind gust speed)